Meath Environmental Platform

Observations for Trim Patrick St

Time AQI Temp °C Hum % Pres Pa CO μg/m³ H₂S μg/m³ NO μg/m³ NO₂ μg/m³ O₃ μg/m³ SO₂ μg/m³ PM1 μg/m³ PM2.5 μg/m³ PM10 μg/m³
Wednesday 5 August 2026
07:28 2 15.4 72 38,460 0.16 0 2.89 8.77 54.16 0 2 5.01 5.51
07:27 2 15.4 72 38,460 0.17 0 2.76 9.09 49.19 0 2 5 5.5
07:26 2 15.4 72 38,460 0.16 0 2.65 8.29 50.32 0 2 5 5.5
07:25 2 15.3 72 38,460 0.16 0 2.72 9.13 53.72 0 2 5 5.5
07:24 2 15.3 72 38,460 0.18 0 2.67 9.76 57.62 0 2 4.99 5.49
07:23 2 15.3 72 38,460 0.18 0 2.67 9.43 49.67 0 2 5 5.5
07:21 2 15.3 72 38,460 0.17 0 2.67 8.81 54.37 0 2 5.01 5.51
07:20 2 15.3 72 38,460 0.18 0 2.74 8.33 51.79 0 2 5.01 5.51
07:19 2 15.3 72 38,460 0.18 0 2.76 8.66 52.04 0 2 5.01 5.51
07:18 2 15.3 72 38,460 0.19 0 2.78 7.6 45.37 0 2 4.99 5.49
07:17 2 15.3 72 38,460 0.17 0 2.8 8.17 55.63 0 2 4.99 5.49
07:15 2 15.3 73 38,460 0.17 0 2.9 10.94 59.48 0 2 4.98 5.48
07:14 2 15.3 73 38,460 0.17 0 2.83 8.91 50.22 0 2 4.98 5.47
07:13 2 15.3 73 38,460 0.16 0 2.82 10.64 51.18 0 2 4.97 5.47
07:12 2 15.2 73 38,460 0.18 0 2.92 10.2 56.17 0 2 4.97 5.47
07:08 2 15.2 73 38,460 0.18 0 2.95 8.63 52.53 0 2 4.96 5.46
07:07 2 15.1 73 38,460 0.18 0 2.97 9.75 59.49 0 2 4.97 5.47
07:06 2 15.1 73 38,460 0.18 0 3.01 8.69 47.89 0 2 4.96 5.46
07:05 2 15.1 73 38,460 0.18 0 2.93 9.35 57.14 0 2 4.95 5.44
07:04 2 15.1 73 38,460 0.18 0 2.84 8.54 51.5 0 2 4.94 5.44